Weather History for Richmond, KY

Change the Weather History Date:

Monday, January 23, 2012

  Actual Average (KLOZ) Record (KLOZ)
Temperature  
Mean Temperature 52 °F 36 °F  
Max Temperature 60 °F 45 °F 70 °F (1967)
Min Temperature 44 °F 26 °F -12 °F (1963)
Degree Days  
Heating Degree Days 13 29  
Month to date heating degree days 684  
Since 1 July heating degree days 2336  
Cooling Degree Days 0 0  
Month to date cooling degree days 0  
Year to date cooling degree days 0  
Growing Degree Days 2 (Base 50)    
Moisture  
Dew Point 46 °F    
Average Humidity 74    
Maximum Humidity 94    
Minimum Humidity 55    
Precipitation  
Precipitation 0.00 in 0.11 in 2.00 in (1999)
Month to date precipitation 2.61  
Year to date precipitation 2.61  
Sea Level Pressure  
Sea Level Pressure 29.82 in    
Wind  
Wind Speed 14 mph (SW)    
Max Wind Speed 25 mph    
Max Gust Speed 36 mph    
Visibility 10 miles    
Events      
T = Trace of Precipitation, MM = Missing Value Source: NWS Daily Summary

Daily Weather History Graph

Daily Weather History Graph

Search for Another Location

Airport:

Trip Planner

Search our weather history database for the weather conditions in past years. The results will help you decide how hot, cold, wet, or windy it might be!

Date:

Astronomy

Jan. 23, 2012 Rise Set
Actual Time 7:47 AM EST 5:50 PM EST
Civil Twilight 7:19 AM EST 6:18 PM EST
Nautical Twilight 6:47 AM EST 6:50 PM EST
Astronomical Twilight 6:16 AM EST 7:21 PM EST
Moon 7:44 AM EST (1/23) 6:35 PM EST (1/23)
Length of Visible Light 10h 59m
Length of Day
10h 02m
New Moon, 0% of the Moon is Illuminated
Jan 23
New Moon
Jan 30
First Quarter
Feb 7
Full
Feb 14
Last Quarter
Feb 21
New

Hourly Weather History & Observations

Time (EST) Temp. Windchill Dew Point Humidity Pressure Visibility Wind Dir Wind Speed Gust Speed Precip Events Conditions
12:15 AM 55.4 °F - 50.0 °F 82% 29.85 in 10.0 mi South 13.8 mph 18.4 mph N/A   Scattered Clouds
12:35 AM 55.4 °F - 50.0 °F 82% 29.83 in 10.0 mi SSE 13.8 mph 23.0 mph N/A   Scattered Clouds
12:55 AM 57.2 °F - 50.0 °F 77% 29.81 in 10.0 mi SSE 15.0 mph 24.2 mph N/A   Clear
1:35 AM 57.2 °F - 50.0 °F 77% 29.81 in 10.0 mi South 13.8 mph 25.3 mph N/A   Mostly Cloudy
1:55 AM 57.2 °F - 50.0 °F 77% 29.81 in 10.0 mi South 12.7 mph 21.9 mph N/A   Mostly Cloudy
2:15 AM 57.2 °F - 50.0 °F 77% 29.81 in 10.0 mi South 12.7 mph 21.9 mph N/A   Overcast
2:35 AM 57.2 °F - 50.0 °F 77% 29.80 in 10.0 mi South 12.7 mph 23.0 mph N/A   Overcast
2:55 AM 57.2 °F - 50.0 °F 77% 29.78 in 10.0 mi SSE 17.3 mph 23.0 mph N/A   Overcast
3:15 AM 57.2 °F - 50.0 °F 77% 29.74 in 10.0 mi SSE 21.9 mph 27.6 mph N/A   Scattered Clouds
3:35 AM 57.2 °F - 50.0 °F 77% 29.73 in 10.0 mi SSE 13.8 mph 25.3 mph N/A   Mostly Cloudy
3:55 AM 59.0 °F - 50.0 °F 72% 29.77 in 10.0 mi South 15.0 mph 31.1 mph N/A   Overcast
4:15 AM 55.4 °F - 51.8 °F 88% 29.79 in 10.0 mi SSW 16.1 mph 21.9 mph N/A   Overcast
4:35 AM 55.4 °F - 51.8 °F 88% 29.86 in 4.0 mi West 19.6 mph 24.2 mph N/A   Overcast
4:55 AM 51.8 °F - 50.0 °F 94% 29.85 in 2.5 mi SW 9.2 mph - N/A   Overcast
5:15 AM 51.8 °F - 50.0 °F 94% 29.84 in 5.0 mi SW 9.2 mph - N/A   Overcast
5:35 AM 51.8 °F - 50.0 °F 94% 29.84 in 5.0 mi SW 5.8 mph - N/A   Overcast
5:55 AM 51.8 °F - 50.0 °F 94% 29.83 in 7.0 mi SSE 4.6 mph - N/A   Overcast
6:15 AM 51.8 °F - 50.0 °F 94% 29.81 in 10.0 mi SSE 8.1 mph - N/A   Overcast
6:35 AM 51.8 °F - 50.0 °F 94% 29.76 in 10.0 mi SE 12.7 mph - N/A   Overcast
6:55 AM 53.6 °F - 50.0 °F 88% 29.75 in 10.0 mi SSE 11.5 mph 19.6 mph N/A   Overcast
7:15 AM 53.6 °F - 50.0 °F 88% 29.73 in 10.0 mi SSE 15.0 mph 19.6 mph N/A   Overcast
7:35 AM 55.4 °F - 50.0 °F 82% 29.73 in 10.0 mi South 13.8 mph 24.2 mph N/A   Scattered Clouds
7:55 AM 55.4 °F - 50.0 °F 82% 29.73 in 10.0 mi South 15.0 mph 25.3 mph N/A   Scattered Clouds
8:15 AM 55.4 °F - 50.0 °F 82% 29.73 in 10.0 mi South 15.0 mph 26.5 mph N/A   Scattered Clouds
8:35 AM 53.6 °F - 50.0 °F 88% 29.73 in 10.0 mi South 12.7 mph 21.9 mph N/A   Clear
8:55 AM 55.4 °F - 50.0 °F 82% 29.74 in 10.0 mi South 12.7 mph 20.7 mph N/A   Scattered Clouds
9:15 AM 55.4 °F - 50.0 °F 82% 29.74 in 10.0 mi South 12.7 mph 20.7 mph N/A   Scattered Clouds
9:35 AM 55.4 °F - 50.0 °F 82% 29.74 in 10.0 mi South 13.8 mph 21.9 mph N/A   Clear
9:55 AM 57.2 °F - 50.0 °F 77% 29.75 in 10.0 mi South 17.3 mph 26.5 mph N/A   Clear
10:15 AM 59.0 °F - 50.0 °F 72% 29.76 in 10.0 mi South 19.6 mph 26.5 mph N/A   Clear
10:55 AM 60.8 °F - 50.0 °F 68% 29.76 in 10.0 mi SSW 19.6 mph 32.2 mph N/A   Clear
11:15 AM 60.8 °F - 48.2 °F 63% 29.75 in 10.0 mi SSW 20.7 mph 35.7 mph N/A   Scattered Clouds
11:35 AM 60.8 °F - 48.2 °F 63% 29.75 in 10.0 mi SSW 23.0 mph 33.4 mph N/A   Mostly Cloudy
11:55 AM 59.0 °F - 48.2 °F 67% 29.76 in 10.0 mi SSW 25.3 mph 34.5 mph N/A   Overcast
12:15 PM 59.0 °F - 50.0 °F 72% 29.76 in 10.0 mi SW 16.1 mph 29.9 mph N/A   Overcast
12:35 PM 60.8 °F - 50.0 °F 68% 29.74 in 10.0 mi SSW 15.0 mph 19.6 mph N/A   Mostly Cloudy
12:55 PM 60.8 °F - 48.2 °F 63% 29.75 in 10.0 mi SW 21.9 mph 34.5 mph N/A   Mostly Cloudy
1:15 PM 59.0 °F - 46.4 °F 63% 29.76 in 10.0 mi WSW 25.3 mph 35.7 mph N/A   Scattered Clouds
1:35 PM 60.8 °F - 44.6 °F 55% 29.75 in 10.0 mi WSW 19.6 mph 33.4 mph N/A   Scattered Clouds
1:55 PM 60.8 °F - 44.6 °F 55% 29.76 in 10.0 mi WSW 18.4 mph 29.9 mph N/A   Clear
2:35 PM 60.8 °F - 44.6 °F 55% 29.77 in 10.0 mi WSW 17.3 mph 28.8 mph N/A   Scattered Clouds
3:15 PM 59.0 °F - 42.8 °F 55% 29.79 in 10.0 mi West 20.7 mph 31.1 mph N/A   Scattered Clouds
3:35 PM 59.0 °F - 42.8 °F 55% 29.81 in 10.0 mi West 23.0 mph 27.6 mph N/A   Scattered Clouds
3:55 PM 57.2 °F - 42.8 °F 59% 29.82 in 10.0 mi West 21.9 mph 29.9 mph N/A   Clear
4:15 PM 57.2 °F - 42.8 °F 59% 29.83 in 10.0 mi West 20.7 mph 28.8 mph N/A   Clear
4:35 PM 55.4 °F - 41.0 °F 58% 29.85 in 10.0 mi West 23.0 mph 28.8 mph N/A   Clear
4:55 PM 53.6 °F - 41.0 °F 62% 29.86 in 10.0 mi West 17.3 mph 25.3 mph N/A   Clear
5:15 PM 53.6 °F - 41.0 °F 62% 29.88 in 10.0 mi West 13.8 mph 24.2 mph N/A   Clear
5:35 PM 51.8 °F - 39.2 °F 62% 29.89 in 10.0 mi West 12.7 mph 21.9 mph N/A   Clear
5:55 PM 51.8 °F - 39.2 °F 62% 29.89 in 10.0 mi West 9.2 mph - N/A   Clear
6:15 PM 50.0 °F - 39.2 °F 66% 29.90 in 10.0 mi West 9.2 mph - N/A   Clear
6:35 PM 48.2 °F - 39.2 °F 71% 29.91 in 10.0 mi West 6.9 mph - N/A   Clear
6:55 PM 48.2 °F - 37.4 °F 66% 29.92 in 10.0 mi West 8.1 mph - N/A   Clear
7:15 PM 46.4 °F 42.9 °F 37.4 °F 71% 29.93 in 10.0 mi WSW 6.9 mph - N/A   Clear
7:35 PM 46.4 °F 42.9 °F 37.4 °F 71% 29.95 in 10.0 mi West 6.9 mph - N/A   Clear
7:55 PM 46.4 °F 42.4 °F 37.4 °F 71% 29.96 in 10.0 mi West 8.1 mph - N/A   Clear
8:15 PM 46.4 °F 41.5 °F 37.4 °F 71% 29.97 in 10.0 mi West 10.4 mph - N/A   Clear
8:35 PM 44.6 °F 40.2 °F 37.4 °F 76% 29.98 in 10.0 mi West 8.1 mph - N/A   Clear
8:55 PM 44.6 °F 39.7 °F 37.4 °F 76% 29.99 in 10.0 mi West 9.2 mph - N/A   Clear
9:15 PM 44.6 °F 38.4 °F 37.4 °F 76% 30.00 in 10.0 mi West 12.7 mph - N/A   Clear
9:35 PM 44.6 °F 39.7 °F 37.4 °F 76% 30.01 in 10.0 mi West 9.2 mph - N/A   Clear
9:55 PM 42.8 °F 38.6 °F 37.4 °F 81% 30.01 in 10.0 mi West 6.9 mph - N/A   Clear
10:15 PM 41.0 °F 37.1 °F 35.6 °F 81% 30.02 in 10.0 mi West 5.8 mph - N/A   Clear
10:35 PM 42.8 °F 40.1 °F 35.6 °F 76% 30.02 in 10.0 mi SW 4.6 mph - N/A   Clear
10:55 PM 41.0 °F 38.0 °F 35.6 °F 81% 30.03 in 10.0 mi SW 4.6 mph - N/A   Clear
11:15 PM 41.0 °F 38.0 °F 35.6 °F 81% 30.03 in 10.0 mi SSW 4.6 mph - N/A   Clear
11:35 PM 41.0 °F 36.4 °F 35.6 °F 81% 30.03 in 10.0 mi WSW 6.9 mph - N/A   Clear
11:55 PM 41.0 °F 36.4 °F 35.6 °F 81% 30.05 in 10.0 mi SW 6.9 mph - N/A   Clear